Flag for Romania Weather past 2 weeks in Timișoara, Romania

Now
64 °F

Scattered clouds.


Feels Like: 64 °F
Forecast: 49 / 59 °F
Wind: 12 mph from Northwest

Location: Timisoara Airport

Current Time: Sep 22, 2014 at 5:33:56 PM

Latest Report: Sep 22, 2014 at 5:00 PM


Visibility: N/A

Pressure: 29.77 "Hg

Humidity: 78%

Dew point: 57 °F

Location of TimișoaraLocation

Historic Weather in Timișoara — Graph

°F

Timișoara temperature yesterday

Maximum temperature yesterday: 75 °F (at 5:00 PM)
Minimum temperature yesterday: 61 °F (at 11:00 PM)
Average temperature yesterday: 67 °F

Past Weeks' High & Low Weather Summary

 TemperatureHumidityPressure
High84 °F (Sep 11, 4:00 PM)100% (Sep 7, 11:30 PM)30.15 "Hg (Sep 7, 11:30 PM)
Low52 °F (Sep 18, 5:30 AM)36% (Sep 18, 4:30 PM)29.77 "Hg (Sep 22, 5:30 AM)
Average66 °F85%29.99 "Hg
* Reported Sep 7 4:00 PM — Sep 22 4:30 PM, Timișoara, Weather by CustomWeather, © 2014

Note: Actual official high and low records may vary slightly from our data, if they occured in-between our weather recording intervals... More about our weather records

Advertising

Timișoara weather history for previous 24 hours

 ConditionsComfort  
Time TempWeatherWind HumidityBarometerVisibility
4:30 PM
Sep 22
64 °FScattered clouds.13 mph88%29.77 "HgN/A
4:00 PM64 °FPartly sunny.9 mph94%29.77 "HgN/A
3:30 PM64 °FBroken clouds.9 mph94%29.77 "HgN/A
3:00 PM63 °FLight rain. Broken clouds.8 mph100%29.77 "HgN/A
2:30 PM63 °FLight rain. Broken clouds.8 mph94%29.77 "Hg4 mi
2:00 PM61 °FLight rain. Fog.8 mph100%29.77 "Hg1 mi
1:30 PM63 °FLight rain. Broken clouds.8 mph94%29.77 "HgN/A
1:00 PM63 °FBroken clouds.8 mph100%29.77 "HgN/A
12:30 PM63 °FLight rain. Scattered clouds.8 mph100%29.77 "HgN/A
12:00 PM63 °FSprinkles. Scattered clouds.5 mph100%29.77 "Hg5 mi
11:30 AM63 °FSprinkles. Scattered clouds.5 mph100%29.77 "Hg5 mi
11:00 AM63 °FSprinkles. Scattered clouds.3 mph100%29.77 "Hg4 mi
10:30 AM63 °FSprinkles. Fog.3 mph100%29.77 "Hg3 mi
10:00 AM63 °FFog.2 mph100%29.77 "Hg2 mi
9:30 AM63 °FFog.No wind94%29.77 "Hg2 mi
9:00 AM63 °FFog.2 mph94%29.77 "Hg1 mi
8:30 AM61 °FLight rain. Fog.1 mph100%29.77 "Hg1 mi
8:00 AM61 °FLight rain. Fog.No wind100%29.77 "Hg1 mi
7:30 AM61 °FFog.2 mph100%29.77 "Hg1 mi
7:00 AM61 °FLight rain. Fog.2 mph94%29.77 "Hg2 mi
6:30 AM61 °FFog.3 mph94%29.77 "Hg1 mi
6:00 AM61 °FFog.3 mph94%29.77 "Hg1 mi
5:30 AM61 °FFog.2 mph94%29.77 "Hg1 mi
5:00 AM59 °FFog.1 mph100%29.80 "Hg1 mi
4:30 AM59 °FFog.3 mph100%29.80 "Hg1 mi
4:00 AM59 °FFog.5 mph94%29.80 "Hg1 mi
3:00 AM57 °FFog.3 mph100%29.83 "Hg1 mi
2:30 AM57 °FFog.3 mph100%29.83 "Hg1 mi
2:00 AM57 °FFog.3 mph100%29.83 "Hg1 mi
1:30 AM59 °FFog.3 mph94%29.83 "Hg1 mi
1:00 AM59 °FFog.3 mph94%29.83 "Hg1 mi
12:30 AM59 °FFog.2 mph100%29.83 "Hg1 mi
12:00 AM61 °FFog.3 mph94%29.86 "Hg2 mi
11:30 PM
Sep 21
61 °FPassing clouds.3 mph94%29.86 "Hg4 mi
11:00 PM61 °FPassing clouds.2 mph100%29.86 "Hg5 mi
10:30 PM64 °FPassing clouds.1 mph94%29.86 "HgN/A
10:00 PM66 °FPassing clouds.3 mph94%29.86 "HgN/A
9:30 PM66 °FPassing clouds.2 mph94%29.86 "HgN/A
9:00 PM68 °FPassing clouds.3 mph94%29.86 "HgN/A
8:30 PM68 °FPassing clouds.5 mph94%29.86 "HgN/A
8:00 PM70 °FPassing clouds.5 mph94%29.86 "HgN/A
7:30 PM72 °FPassing clouds.2 mph83%29.83 "HgN/A
7:00 PM73 °FPassing clouds.3 mph78%29.83 "HgN/A
6:30 PM75 °FPassing clouds.5 mph74%29.86 "HgN/A
6:00 PM75 °FPassing clouds.2 mph69%29.86 "HgN/A
5:30 PM75 °FPassing clouds.3 mph74%29.86 "HgN/A
5:00 PM75 °FPassing clouds.3 mph74%29.86 "HgN/A
Weather by CustomWeather, © 2014

See weather overviewHow to use our weather pages